Flag for Mexico Weather past 2 weeks in Mazatlan, Sinaloa, Mexico

Now
73 °F

Passing clouds.


Feels Like: 77 °F
Forecast: 82 / 91 °F
Wind: 5 mph from South

Location: Durango Airport

Current Time: Jul 30, 2014 at 10:56:28 PM

Latest Report: Jul 30, 2014 at 8:43 PM


Visibility: 8 mi

Pressure: 29.75 "Hg

Humidity: 47%

Dew point: 52 °F

Location of MazatlanLocation

Historic Weather in Mazatlan — Graph

°F

Mazatlan temperature yesterday

Maximum temperature yesterday: 82 °F (at 2:48 PM)
Minimum temperature yesterday: 52 °F (at 6:43 AM)
Average temperature yesterday: 70 °F

Past Weeks' High & Low Weather Summary

 TemperatureHumidityPressure
High86 °F (Jul 22, 5:42 PM)100% (Jul 29, 6:43 AM)30.39 "Hg (Jul 29, 6:43 AM)
Low52 °F (Jul 29, 6:43 AM)12% (Jul 27, 6:01 PM)28.65 "Hg (Jul 28, 11:44 AM)
Average71 °F55%30.13 "Hg
* Reported Jul 15 8:45 PM — Jul 30 8:43 PM, Mazatlan, Weather by CustomWeather, © 2014

Note: Actual official high and low records may vary slightly from our data, if they occured in-between our weather recording intervals... More about our weather records

Advertising

Mazatlan weather history for previous 24 hours

 ConditionsComfort  
Time TempWeatherWind HumidityBarometerVisibility
8:43 PM
Jul 30
73 °FPassing clouds.5 mph47%29.75 "Hg8 mi
7:44 PM79 °FPartly sunny.3 mph21%30.19 "Hg10 mi
6:42 PM84 °FBroken clouds.6 mph16%30.18 "Hg12 mi
5:46 PM86 °FBroken clouds.8 mph14%29.74 "Hg14 mi
4:43 PM84 °FBroken clouds.No wind16%30.20 "Hg14 mi
3:40 PM84 °FPartly sunny.8 mph18%30.22 "Hg14 mi
2:48 PM84 °FPartly sunny.7 mph22%29.79 "Hg14 mi
1:40 PM81 °FScattered clouds.3 mph26%30.27 "Hg14 mi
12:44 PM81 °FScattered clouds.10 mph26%30.30 "Hg14 mi
11:45 AM79 °FScattered clouds.6 mph28%29.83 "Hg14 mi
10:49 AM75 °FScattered clouds.6 mph36%30.33 "Hg14 mi
9:44 AM72 °FPartly sunny.5 mph57%30.34 "Hg14 mi
8:46 AM68 °FScattered clouds.No wind69%29.88 "Hg14 mi
7:50 AM61 °FScattered clouds.No wind83%30.34 "Hg14 mi
6:46 AM55 °FPassing clouds.6 mph88%30.32 "Hg14 mi
5:45 AM55 °FPassing clouds.No wind88%29.86 "Hg8 mi
4:56 AM57 °FPassing clouds.No wind88%30.29 "Hg8 mi
Weather by CustomWeather, © 2014

See weather overviewHow to use our weather pages